Date,TemperatureHighF,TemperatureAvgF,TemperatureLowF,DewpointHighF,DewpointAvgF,DewpointLowF,HumidityHigh,HumidityAvg,HumidityLow,PressureMaxIn,PressureMinIn,WindSpeedMaxMPH,WindSpeedAvgMPH,GustSpeedMaxMPH,PrecipitationSumIn
2013-1-6,41,41,41,40,40,40,98,98,98,29.80,29.78,0,0,0,0.42
2013-1-13,34,33,32,33,33,32,98,98,98,30.20,30.16,0,0,0,0.00
2013-1-14,37,35,32,37,35,32,98,98,98,30.30,30.18,3,0,0,0.01
2013-1-15,41,38,34,40,37,33,98,98,98,30.44,30.31,3,0,0,0.00
2013-1-16,39,36,34,39,36,33,98,98,98,30.42,30.26,5,2,0,0.00
2013-1-17,41,34,30,40,34,30,98,98,98,30.27,30.02,4,1,0,0.00
2013-1-18,41,36,34,40,35,33,98,98,98,30.08,29.99,6,1,0,0.96
2013-1-19,43,36,32,42,35,32,98,98,98,30.12,30.07,6,1,0,0.00
2013-1-20,45,35,28,44,34,28,98,98,96,30.12,30.00,7,1,0,0.01
2013-1-21,39,33,28,39,32,28,98,98,98,30.00,29.86,4,0,0,0.00
2013-1-22,41,36,34,40,35,33,98,98,98,29.87,29.64,4,1,0,0.00
2013-1-23,43,40,36,42,39,35,98,98,98,29.82,29.54,10,2,0,0.31
2013-1-24,41,40,36,40,39,35,98,98,98,29.90,29.70,7,2,0,0.19
2013-1-25,46,40,36,46,40,35,98,98,98,29.77,29.61,4,0,0,0.01
2013-1-26,45,41,37,44,40,37,98,98,98,29.74,29.55,8,2,0,0.78
2013-1-27,41,39,36,40,39,35,98,98,98,29.74,29.69,8,2,0,0.02
2013-1-28,43,40,37,42,40,37,98,98,98,29.78,29.70,12,4,0,0.04
2013-1-29,46,44,41,46,43,40,98,98,98,30.02,29.78,19,3,0,0.05
2013-1-30,50,46,43,50,46,42,98,98,98,30.09,30.01,9,2,0,0.07
2013-1-31,46,45,37,46,44,37,98,98,98,30.09,30.00,6,1,0,0.13
2013-2-1,45,42,37,44,41,37,98,98,98,30.16,30.07,6,1,0,0.00
2013-2-2,45,40,36,44,40,35,98,98,98,30.13,29.97,5,1,0,0.00
2013-2-3,45,42,37,44,41,37,98,98,98,30.02,29.90,8,1,0,0.06
2013-2-4,46,43,41,46,43,40,98,98,98,29.90,29.56,8,1,0,1.86
2013-2-5,46,43,41,46,42,40,98,98,98,29.58,29.48,9,1,0,0.52
2013-2-6,45,43,41,44,42,40,98,98,98,29.70,29.41,8,2,0,0.05
2013-2-7,45,41,34,44,40,33,98,98,98,29.92,25.09,17,3,0,0.01
2013-2-8,46,38,32,46,37,32,98,98,98,30.03,29.92,7,1,0,0.00
2013-2-9,45,39,34,44,39,33,98,98,98,30.08,29.98,4,0,0,0.00
2013-2-10,45,42,39,44,41,39,98,98,98,30.11,30.05,6,1,0,0.00
2013-2-11,45,41,39,44,41,39,98,98,98,30.06,30.03,4,0,0,0.06
2013-2-12,46,44,39,46,43,39,98,98,98,30.10,29.92,18,3,0,0.12
2013-2-13,46,44,41,46,43,40,98,98,98,30.21,30.01,12,3,0,0.08
2013-2-14,45,42,41,44,42,40,98,98,98,30.30,30.20,3,0,0,0.35
2013-2-15,46,43,39,46,43,39,98,98,98,30.30,29.90,4,1,0,0.02
2013-2-16,46,43,39,46,43,39,98,98,98,29.90,29.82,15,4,0,0.04
2013-2-17,46,41,34,46,40,33,98,96,65,29.95,29.83,6,1,0,0.05
2013-2-18,43,40,36,42,39,35,98,98,98,29.82,29.45,7,2,0,0.05
2013-2-19,46,42,34,46,41,33,98,98,98,29.72,29.44,9,3,0,0.00
2013-2-20,43,39,32,42,39,32,98,98,98,29.74,29.69,7,1,0,0.00
2013-2-21,43,40,37,42,40,37,98,98,98,29.75,29.69,8,3,0,0.25
2013-2-22,54,40,36,46,38,-45,98,97,98,29.74,29.32,16,4,0,1.59
2013-2-23,46,42,37,46,41,35,98,96,68,30.06,29.56,13,5,0,0.04
2013-2-24,45,42,37,44,41,37,98,98,98,30.07,29.56,6,1,0,0.05
2013-2-25,46,41,37,46,41,37,98,98,90,30.00,29.52,24,7,0,1.33
2013-2-26,43,40,36,42,40,35,98,98,98,30.03,29.83,9,2,0,0.06
2013-2-27,46,40,36,46,40,35,98,98,98,30.02,29.89,6,1,0,0.05
2013-2-28,45,42,39,44,42,39,98,98,98,29.99,29.89,5,1,0,0.93
2013-3-1,55,50,45,55,49,44,98,98,98,29.99,29.93,8,2,0,0.87
2013-3-2,52,44,37,51,44,37,98,98,98,29.96,29.77,19,3,0,0.14
2013-3-3,48,40,32,46,38,32,98,94,62,30.03,29.91,10,3,0,0.00
2013-3-4,46,40,32,44,38,32,98,94,65,30.04,29.69,8,3,0,0.00
2013-3-5,45,42,37,44,41,37,98,98,98,29.68,29.48,7,3,0,0.02
2013-3-6,43,41,39,42,40,39,98,98,98,29.59,29.35,7,2,0,0.47
2013-3-7,46,41,34,46,41,33,98,98,98,29.84,29.59,5,1,0,0.12
2013-3-8,46,40,32,46,40,32,98,98,98,29.97,29.82,6,1,0,0.00
2013-3-9,50,42,32,50,41,32,98,98,98,30.21,29.97,9,2,0,0.00
2013-3-10,46,42,37,46,42,37,98,98,98,30.21,30.14,8,3,0,0.05
2013-3-11,46,42,37,46,42,37,98,98,98,30.16,29.84,8,1,0,0.22
2013-3-12,52,46,41,51,46,40,98,98,98,29.84,29.68,7,1,0,2.10
2013-3-13,52,49,46,51,48,46,98,98,98,29.87,29.75,6,1,0,0.50
2013-3-14,52,47,45,51,47,44,98,98,98,29.84,29.71,5,0,0,0.39
2013-3-15,54,47,43,53,46,42,98,98,98,29.93,29.84,8,1,0,0.11
2013-3-16,46,43,36,46,42,35,98,98,98,29.84,29.59,17,5,0,0.20
2013-3-17,41,38,37,40,37,37,98,98,98,29.83,29.66,13,4,0,0.00
2013-3-19,45,43,41,44,40,34,98,91,67,29.69,29.24,10,4,0,0.13
2013-3-20,50,43,36,50,42,35,98,98,98,29.69,29.00,19,5,0,0.95
2013-3-21,45,37,34,44,37,33,98,98,98,29.92,29.69,12,4,0,0.26
2013-3-22,41,35,30,40,34,30,98,98,98,30.01,29.93,7,2,0,0.00
2013-5-12,59,58,55,58,57,55,98,98,98,29.78,29.77,3,2,0,0.00
2013-5-20,54,54,54,53,53,53,98,98,98,29.72,29.72,5,5,0,0.00
2013-5-21,52,50,50,51,50,50,98,98,98,29.52,29.52,5,2,0,0.00
2013-5-23,52,48,46,51,48,46,98,98,98,29.71,29.69,9,2,0,0.00
2013-5-24,52,46,43,51,45,42,98,98,98,29.72,29.70,1,0,0,0.00
2013-6-1,61,61,61,60,60,60,98,98,98,29.90,29.90,4,4,0,0.00
2013-6-5,70,64,59,69,64,58,98,98,98,29.80,29.78,4,1,0,0.00
2013-6-6,57,56,55,57,55,55,98,98,98,29.79,29.78,4,0,0,0.00
2013-6-10,55,54,54,53,53,49,98,96,79,29.65,29.63,15,8,0,0.00
2013-6-11,64,57,50,58,51,44,98,83,51,29.82,29.64,13,5,0,0.00
2013-6-12,63,54,50,62,54,50,98,98,98,29.87,29.82,10,3,0,0.04
2013-6-13,68,57,50,62,53,46,98,87,46,29.93,29.87,10,3,0,0.00
2013-6-14,66,58,50,64,57,50,98,98,81,29.94,29.82,13,4,0,0.00
2013-6-15,68,60,46,67,58,46,98,92,69,29.82,29.68,7,2,0,0.00
2013-6-16,72,66,59,67,63,56,98,89,60,29.79,29.75,14,6,0,0.00
2013-6-17,55,55,54,55,54,53,98,98,98,29.69,29.64,9,5,0,0.07
2013-6-18,70,60,52,66,57,51,98,92,57,29.69,29.64,9,2,0,0.00
2013-6-19,68,61,54,57,50,45,98,70,44,29.72,29.66,11,5,0,0.00
2013-6-20,55,54,52,55,53,51,98,98,98,29.75,29.64,17,6,0,0.18
2013-6-21,70,63,54,67,59,53,98,88,60,29.90,29.86,10,4,0,0.00
2013-6-23,64,63,63,64,62,62,98,98,98,29.51,29.39,5,1,0,0.00